Location: Kosice
(0.0000°N, 21.2500°E)
Time: 05:43:10
(UTC+01:00)

Cosmos 158 Rocket - Pass Details

Date: 24 January 2021
Orbit: 698 x 794 km, 74.0° (Epoch: 04 March)

Event Time Altitude Azimuth Distance (km) Brightness Sun altitude
Rises 18:15:31 0° 2° (N) 3,277 7.1 -6.7°
Reaches altitude 10° 18:18:03 10° 9° (N) 2,349 6.2 -7.3°
Maximum altitude 18:23:02 39° 78° (ENE) 1,157 4.5 -8.5°
Drops below altitude 10° 18:27:59 10° 146° (SE) 2,331 6.4 -9.6°
Sets 18:30:28 0° 153° (SSE) 3,249 7.2 -10.2°
